星链-5547 (STARLINK-5547 )

导读 | 豆包AI

STARLINK-5547是美国SpaceX公司星链(Starlink)星座的一颗低轨通信卫星,于2023年1月26日发射入轨。作为星链全球卫星互联网项目的组成部分,它运行在近地轨道,旨在为全球偏远地区、海洋和空域提供高速低延迟宽带互联网服务,助力缩小数字鸿沟。星链项目计划部署超4万颗卫星,该卫星的成功发射进一步推动了星座组网进程,不过大规模低轨卫星部署也引发了太空拥堵、天文观测干扰等领域的关注与讨论。

基本信息
目录编号:
55352
目录名称:
STARLINK-5547
国际标识:
2023-013X
轨道中心:
EARTH
卫星名称:
星链-5547
卫星全名:
星链-5547 (STARLINK-5547 )
卫星状态:
在轨 (已飞行1144 天)
发射日期:
2023-01-26 UTC
国别 :
美国 (US)
星等 :
--
轨道信息
数据来源 国际轨道数据
星历时间: 2026-03-15T14:00:01+0800
10小时前
查看轨道信息
半长轴: 6863.676km
偏心率: 0.0001529
轨道倾角: 43.004°
近地点辐角 251.244°
升交点赤经 268.360°
平近点角 211.803°
近地点: 484.489km
远地点: 486.589km
周期: 94.318分钟
每日圈数: 15.267489
详细信息
固有亮度:
5
最大亮度:
2.5
卫星平台:
Starlink v1.5
覆盖范围:
全球
运营商:
太空探索技术公司
运营商所在国:
美国
制造商(研发单位):
太空探索技术公司
制造商所在国:
美国
使用方式:
暂无
卫星简介
星链(Starlink)计划是由太空探索技术公司(SpaceX)提出的一个巨型低轨卫星互联网星座项目,计划在2019年至2024年间在太空搭建由约1.2万颗卫星组成的“星链”网络,其中1584颗将部署在地球上空550千米处的近地轨道,并从2020年开始工作。该卫星仍在工作。
2D轨道图
3D轨道图
轨道高度分析图
轨道倾角分析图
轨道综合分析图
查看轨道综合分析图